Powrót do katalogu

ARIANE 2 DEB

AktywnyGTO
NORAD 27593·DEBRIS·🇫🇷 France

Wystrzelony May 17, 1988 z Guiana Space Centre

Loading…

TLE

Starzejące sięSource: Space-Track

Epoka: Sep 14, 2026, 11:53 UTC

1 27593U 88040C   26257.49530404 -.00000052  00000-0  35681-3 0  9991
2 27593   7.7221 315.9818 7172162 164.8873 240.3991  2.29687412201827

Śledź ARIANE 2 DEB w czasie rzeczywistym z AllMySat

Download on the App Store